Regional Weather Roundup
Issued by NWS

Home | Current Version | Previous Version | Graphics & Text | Print | Product List | Glossary On
Versions: 1 2 3 4 5 6 7 8 9 10 11 12 13 14 15 16 17 18 19 20 21 22 23 24 25 26 27 28 29 30 31 32 33 34 35 36 37 38 39 40 41 42 43 44 45 46 47 48 49 50
000
ASUS45 KSLC 312010
RWRUT

UTAH REGIONAL WEATHER ROUNDUP
NATIONAL WEATHER SERVICE SALT LAKE CITY UT
200 PM MDT TUE MAY 31 2016

UTZ001>011-023>025-312100-

NORTHERN UTAH

CITY           SKY/WX    TMP DP  RH WIND       PRES   REMARKS
BRIGHAM CITY     N/A     71  31  22 CALM      30.08F
HILL AFB       SUNNY     70  31  23 VRB2      30.10S
LOGAN          SUNNY     69  36  29 CALM      30.09F
OGDEN          SUNNY     73  35  25 MISG      30.07F
PROVO AIRPORT  MOSUNNY   72  30  21 SW6       30.08F
SALT LAKE CITY MOSUNNY   75  35  23 N14       30.07F
VERNAL         SUNNY     72  33  24 MISG      30.05F
WENDOVER       SUNNY     73  28  19 SE5       30.08S
HEBER CITY     SUNNY     72  28  20 CALM      30.07F
WEST JORDAN    SUNNY     70  34  26 N15       30.09F

$$

UTZ012>022-026-027-312100-

SOUTHERN/CENTRAL UTAH

CITY           SKY/WX    TMP DP  RH WIND       PRES   REMARKS
BLANDING       MOSUNNY   79  26  14 W6        30.08F
BRYCE CANYON   SUNNY     70  24  17 SW15      30.16F
CEDAR CITY     SUNNY     78  30  17 NW10      30.05F
DELTA          SUNNY     75  18  11 W8G17     30.07F
HANKSVILLE     SUNNY     81  27  13 CALM      29.97F
MILFORD        SUNNY     77  29  17 N12G25    30.06F
MOAB/CYNLANDS  SUNNY     81  31  16 VRB5      29.95F
PRICE          SUNNY     78  19  11 MISG      30.04F
ST GEORGE      CLEAR     90  32  12 N7        29.89F
KANAB          SUNNY     84  28  13 NE7       30.01F

$$

REGIONAL REPORTS     COLORADO/ARIZONA

CITY           SKY/WX    TMP DP  RH WIND       PRES   REMARKS
CRAIG, CO      MOSUNNY   69  33  26 VRB6      30.11F
GRAND JUNCTION SUNNY     78  30  17 VRB3      29.97F
RIFLE          MOSUNNY   77  33  20 VRB5      30.01F
MONTROSE       SUNNY     77  28  16 N9        30.03F
CORTEZ         SUNNY     79  22  12 VRB3G17   30.01F
PAGE, AZ       SUNNY     83  29  14 CALM      29.94F
GRAND CANYON   MOSUNNY   78  23  13 VRB5G18   30.09F
KINGMAN        MOSUNNY   92  30  11 N7G25     29.90F
FLAGSTAFF      MOSUNNY   71  22  15 SW13      30.11F

$$

REGIONAL REPORTS    NEVADA/IDAHO/WYOMING

CITY           SKY/WX    TMP DP  RH WIND       PRES   REMARKS
LAS VEGAS, NV  MOSUNNY   94  33  11 W6        29.81F
ELY            SUNNY     70  26  19 NE12G20   30.15F
ELKO           SUNNY     74  29  19 N6        30.12F
POCATELLO, ID  MOSUNNY   71  27  19 N6        30.13S
BURLEY         SUNNY     70  33  25 VRB5      30.11F
EVANSTON, WY   SUNNY     63  26  24 NE13      30.17F
ROCK SPRINGS   PTSUNNY   63  33  32 VRB5      30.15F
KEMMERER         N/A     63  30  29 W9G16     30.18S

$$



USA.gov is the U.S. government's official web portal to all federal, state and local government web resources and services.